Starlink 4071

operational
NORAD ID: 52671 Int'l Des: 2022-053 Owner: SPXS Country: US Constellation: starlink
LEOCIRCULAR

Über Starlink 4071

Beschreibung wird geladen...

Live-Position

3D-Globus wird geladen...

Nächste Überflüge

Höhenverlauf

Altitude vs Time

uPlot chart will show altitude changes over time

Zweizeiliger Elementsatz

1 52671U 22053R 25257.31230649 -.00001158 00000-0 -54649-4 0 9991
2 52671 53.2142 225.9117 0001917 84.7883 275.3328 15.08864069184418
Epoch: 14. Sept. 2025 • Age: 25 hours

Aktueller Status

Höhe 551.2 km
Geschwindigkeit 7.59 km/s
Subsatellitenpunkt -33.82°S, 65.68°E
Startdatum 18. Mai 2022
Alter 3.3 years
Typ internet

Technische Details

Klassifizierung Payload
Masse 297.00 kg
Trockenmasse 275.00 kg
Gesamtmasse 297.00 kg
Länge 0.20 m
Durchmesser 2.80 m
Spannweite 9.00 m
Form Box + pan
Hersteller SPXS
Bus-Typ Starlink
Phasenstatus In Orbit
Besitzer/Staat SPXS/US

Große Konstellationen

Loading constellations...